Venus Seven — H9RN — position and weather

sailwx.info

Track history (hours):
 
Tides and Currents Weather Stations Pressure Air Temp Water Temp Dewpoint Dewpoint Depression Visibility Wind Speed Wind Dir Waves Ship Positions

Venus Seven

Last reported at 2014-Oct-28 17:29 UTC. Time now 2014-Oct-31 18:00 UTC.
Position N 33°59' E 134°56'.

Length 93 m; draft 6.9 m.

Type: Cargo ship. MMSI: 353405000.

Date/timePositionNaut miles runAvg speedWind from/ knotsBaromVisibWave heightAir tempDewpointWater temp
2014-Oct-28 17:29N 33°59' E 134°56'1212.8
2014-Oct-28 16:33N 34°11' E 134°58'1212.5
2014-Oct-28 15:33N 34°24' E 135°00'1211.8
2014-Oct-28 14:33N 34°35' E 135°04'9 9.3
2014-Oct-28 13:33N 34°37' E 134°53'2 0.1
2014-Oct-27 09:10N 34°37' E 134°55'710.3
2014-Oct-27 08:32N 34°36' E 135°03'1211.8
2014-Oct-27 07:33N 34°36' E 135°17'7 5.7
2014-Oct-27 06:24N 34°38' E 135°25'0 0.0
2014-Oct-27 04:30N 34°38' E 135°25'0 0.0
2014-Oct-27 03:30N 34°38' E 135°25'0 0.0
2014-Oct-27 02:24N 34°38' E 135°25'0 0.0
2014-Oct-27 01:24N 34°38' E 135°25'0 0.0
2014-Oct-27 00:24N 34°38' E 135°25'0 0.0
2014-Oct-26 23:24N 34°38' E 135°25'0 0.0
2014-Oct-26 22:30N 34°38' E 135°25'0 0.0
2014-Oct-26 21:29N 34°38' E 135°25'0 0.0
2014-Oct-26 20:29N 34°38' E 135°25'0 0.0
2014-Oct-26 19:23N 34°38' E 135°25'0 0.0
2014-Oct-26 18:23N 34°38' E 135°25'0 0.0
2014-Oct-26 17:17N 34°38' E 135°25'0 0.0
2014-Oct-26 16:29N 34°38' E 135°25'0 0.0
2014-Oct-26 15:29N 34°38' E 135°25'0 0.0
2014-Oct-26 14:29N 34°38' E 135°25'0 0.0
2014-Oct-26 13:29N 34°38' E 135°25'0 0.0
2014-Oct-26 12:29N 34°38' E 135°25'0 0.0
2014-Oct-26 11:11N 34°38' E 135°25'0 0.0
2014-Oct-26 10:29N 34°38' E 135°25'0 0.0
2014-Oct-26 09:29N 34°38' E 135°25'0 0.0
2014-Oct-26 08:29N 34°38' E 135°25'0 0.0
2014-Oct-26 07:29N 34°38' E 135°25'0 0.0
2014-Oct-26 06:23N 34°38' E 135°25'0 0.0
2014-Oct-26 05:23N 34°38' E 135°25'0 0.0
2014-Oct-26 04:23N 34°38' E 135°25'0 0.0
2014-Oct-26 03:29N 34°38' E 135°25'0 0.0
2014-Oct-26 02:29N 34°38' E 135°25'0 0.0
2014-Oct-26 01:29N 34°38' E 135°25'0 0.0
2014-Oct-26 00:17N 34°38' E 135°25'0 0.0
2014-Oct-25 23:23N 34°38' E 135°25'0 0.0
2014-Oct-25 22:29N 34°38' E 135°25'0 0.0
2014-Oct-25 21:29N 34°38' E 135°25'0 0.0
2014-Oct-25 20:23N 34°38' E 135°25'0 0.0
2014-Oct-25 19:29N 34°38' E 135°25'0 0.0
2014-Oct-25 18:23N 34°38' E 135°25'0 0.0
2014-Oct-25 17:29N 34°38' E 135°25'0 0.0
2014-Oct-25 16:29N 34°38' E 135°25'0 0.0
2014-Oct-25 15:29N 34°38' E 135°25'0 0.0
2014-Oct-25 14:29N 34°38' E 135°25'0 0.0
2014-Oct-25 13:29N 34°38' E 135°25'0 0.0
2014-Oct-25 12:29N 34°38' E 135°25'0 0.0
2014-Oct-25 11:29N 34°38' E 135°25'0 0.0
2014-Oct-25 10:23N 34°38' E 135°25'0 0.0
2014-Oct-25 09:22N 34°38' E 135°25'0 0.0
2014-Oct-25 08:28N 34°38' E 135°25'0 0.0
2014-Oct-25 07:28N 34°38' E 135°25'0 0.0
2014-Oct-25 06:22N 34°38' E 135°25'0 0.0
2014-Oct-25 05:28N 34°38' E 135°25'0 0.0
2014-Oct-25 04:28N 34°38' E 135°25'0 0.0
2014-Oct-25 03:22N 34°38' E 135°25'0 0.0
2014-Oct-25 02:28N 34°38' E 135°25'0 0.0
2014-Oct-25 01:28N 34°38' E 135°25'0 0.0
2014-Oct-25 00:28N 34°38' E 135°25'0 0.0
2014-Oct-24 23:28N 34°38' E 135°25'0 0.0
2014-Oct-24 22:16N 34°38' E 135°25'2 3.2
2014-Oct-24 21:33N 34°37' E 135°22'1 0.7
2014-Oct-24 20:29N 34°37' E 135°22'0 0.0
2014-Oct-24 19:29N 34°37' E 135°22'0 0.0
2014-Oct-24 18:29N 34°37' E 135°22'0 0.0
2014-Oct-24 17:29N 34°37' E 135°22'0 0.0
2014-Oct-24 16:29N 34°37' E 135°22'1 1.3
2014-Oct-24 15:33N 34°36' E 135°20'1313.2
2014-Oct-24 14:33N 34°35' E 135°04'1312.5
2014-Oct-24 13:29N 34°33' E 134°48'7 0.2
2014-Oct-23 08:30N 34°36' E 134°55'1011.0
2014-Oct-23 07:33N 34°35' E 135°08'1212.4
2014-Oct-23 06:33N 34°38' E 135°22'2 1.9
2014-Oct-23 05:29N 34°38' E 135°25'0 0.0
2014-Oct-23 04:29N 34°38' E 135°25'0 0.0
2014-Oct-23 03:29N 34°38' E 135°25'0 0.0
2014-Oct-23 02:29N 34°38' E 135°25'0 0.0
2014-Oct-23 01:29N 34°38' E 135°25'0 0.0
2014-Oct-23 00:29N 34°38' E 135°25'0 0.0
2014-Oct-22 23:29N 34°38' E 135°25'0 0.0
2014-Oct-22 22:23N 34°38' E 135°25'0 0.0
2014-Oct-22 21:23N 34°38' E 135°25'0 0.0
2014-Oct-22 20:29N 34°38' E 135°25'0 0.0
2014-Oct-22 19:29N 34°38' E 135°25'0 0.0
2014-Oct-22 18:29N 34°38' E 135°25'0 0.0
2014-Oct-22 17:29N 34°38' E 135°25'0 0.0
2014-Oct-22 16:29N 34°38' E 135°25'0 0.0
2014-Oct-22 15:29N 34°38' E 135°25'0 0.0
2014-Oct-22 14:29N 34°38' E 135°25'0 0.0
2014-Oct-22 13:29N 34°38' E 135°25'0 0.0
2014-Oct-22 12:29N 34°38' E 135°25'0 0.0
2014-Oct-22 11:29N 34°38' E 135°25'0 0.0
2014-Oct-22 10:29N 34°38' E 135°25'0 0.0
2014-Oct-22 09:29N 34°38' E 135°25'0 0.0
2014-Oct-22 08:29N 34°38' E 135°25'0 0.0
2014-Oct-22 07:29N 34°38' E 135°25'0 0.0
2014-Oct-22 06:29N 34°38' E 135°25'0 0.0
2014-Oct-22 05:23N 34°38' E 135°25'0 0.0
2014-Oct-22 04:29N 34°38' E 135°25'0 0.0
2014-Oct-22 03:29N 34°38' E 135°25'0 0.0
2014-Oct-22 02:05N 34°38' E 135°25'0 0.0
2014-Oct-22 01:29N 34°38' E 135°25'0 0.0
2014-Oct-22 00:27N 34°38' E 135°25'3 3.7
2014-Oct-21 23:32N 34°36' E 135°21'9 8.7
2014-Oct-21 22:31N 34°31' E 135°13'1110.8
2014-Oct-21 21:30N 34°23' E 135°04'9 9.2
2014-Oct-21 20:33N 34°14' E 135°00'1010.4
2014-Oct-21 19:33N 34°04' E 134°58'  
Track history (hours):
 
Tides and Currents Weather Stations Pressure Air Temp Water Temp Dewpoint Dewpoint Depression Visibility Wind Speed Wind Dir Waves Ship Positions

Venus Seven

Last reported at 2014-Oct-28 17:29 UTC. Time now 2014-Oct-31 18:00 UTC.
Position N 33°59' E 134°56'.

Length 93 m; draft 6.9 m.

Type: Cargo ship. MMSI: 353405000.

Date/timePositionNaut miles runAvg speedWind from/ knotsBaromVisibWave heightAir tempDewpointWater temp
2014-Oct-28 17:29N 33°59' E 134°56'1212.8
2014-Oct-28 16:33N 34°11' E 134°58'1212.5
2014-Oct-28 15:33N 34°24' E 135°00'1211.8
2014-Oct-28 14:33N 34°35' E 135°04'9 9.3
2014-Oct-28 13:33N 34°37' E 134°53'2 0.1
2014-Oct-27 09:10N 34°37' E 134°55'710.3
2014-Oct-27 08:32N 34°36' E 135°03'1211.8
2014-Oct-27 07:33N 34°36' E 135°17'7 5.7
2014-Oct-27 06:24N 34°38' E 135°25'0 0.0
2014-Oct-27 04:30N 34°38' E 135°25'0 0.0
2014-Oct-27 03:30N 34°38' E 135°25'0 0.0
2014-Oct-27 02:24N 34°38' E 135°25'0 0.0
2014-Oct-27 01:24N 34°38' E 135°25'0 0.0
2014-Oct-27 00:24N 34°38' E 135°25'0 0.0
2014-Oct-26 23:24N 34°38' E 135°25'0 0.0
2014-Oct-26 22:30N 34°38' E 135°25'0 0.0
2014-Oct-26 21:29N 34°38' E 135°25'0 0.0
2014-Oct-26 20:29N 34°38' E 135°25'0 0.0
2014-Oct-26 19:23N 34°38' E 135°25'0 0.0
2014-Oct-26 18:23N 34°38' E 135°25'0 0.0
2014-Oct-26 17:17N 34°38' E 135°25'0 0.0
2014-Oct-26 16:29N 34°38' E 135°25'0 0.0
2014-Oct-26 15:29N 34°38' E 135°25'0 0.0
2014-Oct-26 14:29N 34°38' E 135°25'0 0.0
2014-Oct-26 13:29N 34°38' E 135°25'0 0.0
2014-Oct-26 12:29N 34°38' E 135°25'0 0.0
2014-Oct-26 11:11N 34°38' E 135°25'0 0.0
2014-Oct-26 10:29N 34°38' E 135°25'0 0.0
2014-Oct-26 09:29N 34°38' E 135°25'0 0.0
2014-Oct-26 08:29N 34°38' E 135°25'0 0.0
2014-Oct-26 07:29N 34°38' E 135°25'0 0.0
2014-Oct-26 06:23N 34°38' E 135°25'0 0.0
2014-Oct-26 05:23N 34°38' E 135°25'0 0.0
2014-Oct-26 04:23N 34°38' E 135°25'0 0.0
2014-Oct-26 03:29N 34°38' E 135°25'0 0.0
2014-Oct-26 02:29N 34°38' E 135°25'0 0.0
2014-Oct-26 01:29N 34°38' E 135°25'0 0.0
2014-Oct-26 00:17N 34°38' E 135°25'0 0.0
2014-Oct-25 23:23N 34°38' E 135°25'0 0.0
2014-Oct-25 22:29N 34°38' E 135°25'0 0.0
2014-Oct-25 21:29N 34°38' E 135°25'0 0.0
2014-Oct-25 20:23N 34°38' E 135°25'0 0.0
2014-Oct-25 19:29N 34°38' E 135°25'0 0.0
2014-Oct-25 18:23N 34°38' E 135°25'0 0.0
2014-Oct-25 17:29N 34°38' E 135°25'0 0.0
2014-Oct-25 16:29N 34°38' E 135°25'0 0.0
2014-Oct-25 15:29N 34°38' E 135°25'0 0.0
2014-Oct-25 14:29N 34°38' E 135°25'0 0.0
2014-Oct-25 13:29N 34°38' E 135°25'0 0.0
2014-Oct-25 12:29N 34°38' E 135°25'0 0.0
2014-Oct-25 11:29N 34°38' E 135°25'0 0.0
2014-Oct-25 10:23N 34°38' E 135°25'0 0.0
2014-Oct-25 09:22N 34°38' E 135°25'0 0.0
2014-Oct-25 08:28N 34°38' E 135°25'0 0.0
2014-Oct-25 07:28N 34°38' E 135°25'0 0.0
2014-Oct-25 06:22N 34°38' E 135°25'0 0.0
2014-Oct-25 05:28N 34°38' E 135°25'0 0.0
2014-Oct-25 04:28N 34°38' E 135°25'0 0.0
2014-Oct-25 03:22N 34°38' E 135°25'0 0.0
2014-Oct-25 02:28N 34°38' E 135°25'0 0.0
2014-Oct-25 01:28N 34°38' E 135°25'0 0.0
2014-Oct-25 00:28N 34°38' E 135°25'0 0.0
2014-Oct-24 23:28N 34°38' E 135°25'0 0.0
2014-Oct-24 22:16N 34°38' E 135°25'2 3.2
2014-Oct-24 21:33N 34°37' E 135°22'1 0.7
2014-Oct-24 20:29N 34°37' E 135°22'0 0.0
2014-Oct-24 19:29N 34°37' E 135°22'0 0.0
2014-Oct-24 18:29N 34°37' E 135°22'0 0.0
2014-Oct-24 17:29N 34°37' E 135°22'0 0.0
2014-Oct-24 16:29N 34°37' E 135°22'1 1.3
2014-Oct-24 15:33N 34°36' E 135°20'1313.2
2014-Oct-24 14:33N 34°35' E 135°04'1312.5
2014-Oct-24 13:29N 34°33' E 134°48'7 0.2
2014-Oct-23 08:30N 34°36' E 134°55'1011.0
2014-Oct-23 07:33N 34°35' E 135°08'1212.4
2014-Oct-23 06:33N 34°38' E 135°22'2 1.9
2014-Oct-23 05:29N 34°38' E 135°25'0 0.0
2014-Oct-23 04:29N 34°38' E 135°25'0 0.0
2014-Oct-23 03:29N 34°38' E 135°25'0 0.0
2014-Oct-23 02:29N 34°38' E 135°25'0 0.0
2014-Oct-23 01:29N 34°38' E 135°25'0 0.0
2014-Oct-23 00:29N 34°38' E 135°25'0 0.0
2014-Oct-22 23:29N 34°38' E 135°25'0 0.0
2014-Oct-22 22:23N 34°38' E 135°25'0 0.0
2014-Oct-22 21:23N 34°38' E 135°25'0 0.0
2014-Oct-22 20:29N 34°38' E 135°25'0 0.0
2014-Oct-22 19:29N 34°38' E 135°25'0 0.0
2014-Oct-22 18:29N 34°38' E 135°25'0 0.0
2014-Oct-22 17:29N 34°38' E 135°25'0 0.0
2014-Oct-22 16:29N 34°38' E 135°25'0 0.0
2014-Oct-22 15:29N 34°38' E 135°25'0 0.0
2014-Oct-22 14:29N 34°38' E 135°25'0 0.0
2014-Oct-22 13:29N 34°38' E 135°25'0 0.0
2014-Oct-22 12:29N 34°38' E 135°25'0 0.0
2014-Oct-22 11:29N 34°38' E 135°25'0 0.0
2014-Oct-22 10:29N 34°38' E 135°25'0 0.0
2014-Oct-22 09:29N 34°38' E 135°25'0 0.0
2014-Oct-22 08:29N 34°38' E 135°25'0 0.0
2014-Oct-22 07:29N 34°38' E 135°25'0 0.0
2014-Oct-22 06:29N 34°38' E 135°25'0 0.0
2014-Oct-22 05:23N 34°38' E 135°25'0 0.0
2014-Oct-22 04:29N 34°38' E 135°25'0 0.0
2014-Oct-22 03:29N 34°38' E 135°25'0 0.0
2014-Oct-22 02:05N 34°38' E 135°25'0 0.0
2014-Oct-22 01:29N 34°38' E 135°25'0 0.0
2014-Oct-22 00:27N 34°38' E 135°25'3 3.7
2014-Oct-21 23:32N 34°36' E 135°21'9 8.7
2014-Oct-21 22:31N 34°31' E 135°13'1110.8
2014-Oct-21 21:30N 34°23' E 135°04'9 9.2
2014-Oct-21 20:33N 34°14' E 135°00'1010.4
2014-Oct-21 19:33N 34°04' E 134°58'  

Dump ship's entire track history